Stations météo

Publicité
Bezier-Vias, France (7638): Température de l'air & dewpoint: 17.01.2017 05:00:00 - 23.01.2017 05:00:00 (CET)Bezier-Vias, France (7638): Vitesse du vent & gusts: 17.01.2017 05:00:00 - 23.01.2017 05:00:00 (CET)Bezier-Vias, France (7638): Direction du vent: 17.01.2017 05:00:00 - 23.01.2017 05:00:00 (CET)Bezier-Vias, France (7638): reduced air pressure: 17.01.2017 05:00:00 - 23.01.2017 05:00:00 (CET)Bezier-Vias, France (7638): visibility: 17.01.2017 05:00:00 - 23.01.2017 05:00:00 (CET)Bezier-Vias, France (7638): Quantités de précipitations: 17.01.2017 05:00:00 - 23.01.2017 05:00:00 (CET)
Date & Time tt [°C] td [°C] ff [km/h] ff [knt] fx [km/h] fx [knt] dd ppp [hPa] vv [km] rr [mm]
23.01.2017 05:00:00 5,4 4,5 10 5 19 10 W 1020,1 12 0,2
23.01.2017 04:00:00 5,5 4,6 6 3 18 10 W 1020,0 12 0,0
23.01.2017 03:00:00 5,6 4,9 13 7 20 11 W 1020,0 13 0,0
23.01.2017 02:00:00 5,5 4,8 13 7 18 10 W 1020,1 9 0,0
23.01.2017 01:00:00 5,6 4,9 9 5 18 10 WNW 1020,6 13 0,4
23.01.2017 00:00:00 5,7 5,0 11 6 15 8 W 1021,3 7 0,4
22.01.2017 23:00:00 5,7 4,8 9 5 15 8 W 1020,9 3,3 0,4
22.01.2017 22:00:00 5,8 4,8 8 4 15 8 WNW 1020,9 12 -
22.01.2017 21:00:00 6,0 4,8 6 3 17 9 WNW 1020,9 16 0,0
22.01.2017 20:00:00 6,0 4,5 8 5 12 6 W 1020,8 34 0,0
22.01.2017 19:00:00 6,0 4,5 10 5 12 7 W 1020,4 46 0,0
22.01.2017 18:00:00 6,4 4,7 9 5 25 13 NW 1020,1 60 0,0
22.01.2017 17:00:00 6,5 5,0 14 8 24 13 NNW 1019,8 60 0,0
22.01.2017 16:00:00 6,6 5,1 16 9 26 14 N 1019,8 47 1,6
22.01.2017 15:00:00 6,7 4,7 18 10 35 19 N 1019,7 11 0,8
22.01.2017 14:00:00 7,4 4,4 21 12 32 17 NNE 1019,9 60 0,0
22.01.2017 13:00:00 6,1 3,9 21 11 33 18 N 1021,0 60 0,2
22.01.2017 12:00:00 4,7 3,0 22 12 32 17 N 1021,5 20 1,0
22.01.2017 11:00:00 3,9 1,9 13 7 19 10 N 1021,8 13 0,8
22.01.2017 10:00:00 4,3 -0,3 15 8 25 13 NNE 1021,7 53 0,0
22.01.2017 09:00:00 3,4 1,0 18 10 26 14 NNW 1020,8 38 0,2
22.01.2017 08:00:00 3,3 0,7 13 7 18 10 N 1021,0 9 0,8
22.01.2017 07:00:00 3,6 -0,2 3 2 13 7 E 1021,0 10 0,2
22.01.2017 06:00:00 3,2 -2,3 6 3 14 8 SSW 1020,9 20 0,0
22.01.2017 05:00:00 2,3 -2,2 5 3 9 5 W 1019,6 35 0,0
22.01.2017 04:00:00 2,0 -2,9 6 4 11 6 NNW 1019,6 56 0,0
22.01.2017 03:00:00 0,4 -3,7 6 3 11 6 NNW 1020,2 37 0,0
22.01.2017 02:00:00 1,8 -3,7 3 1 5 3 NNW 1020,5 44 0,0
22.01.2017 01:00:00 1,1 -3,6 3 2 10 5 NW 1021,0 42 0,0
22.01.2017 00:00:00 0,2 -4,1 7 4 11 6 NW 1021,5 20 0,0
21.01.2017 23:00:00 1,1 -3,8 6 3 7 4 W 1021,6 17 0,0
21.01.2017 22:00:00 2,0 -4,3 5 3 12 7 W 1021,2 26 0,0
21.01.2017 21:00:00 4,5 -4,5 5 3 16 8 WNW 1021,1 43 0,0
21.01.2017 20:00:00 4,6 -3,9 6 4 11 6 WNW 1021,2 33 0,0
21.01.2017 19:00:00 6,4 -5,0 6 3 20 11 N 1020,8 60 0,0
21.01.2017 18:00:00 6,7 -3,8 6 3 8 4 WNW 1020,4 60 0,0
21.01.2017 17:00:00 11,7 -4,9 4 2 18 10 E 1020,3 60 0,0
21.01.2017 16:00:00 12,8 -6,3 16 9 40 22 ENE 1020,3 60 0,0
21.01.2017 15:00:00 14,2 -6,1 19 10 34 18 ENE 1020,7 60 0,0
21.01.2017 14:00:00 13,0 -3,3 9 5 20 11 NNE 1021,5 60 0,0
21.01.2017 13:00:00 11,5 -2,7 11 6 20 11 NE 1022,6 60 0,0
21.01.2017 12:00:00 9,9 -2,4 16 8 24 13 NE 1023,4 22 0,0
21.01.2017 11:00:00 7,1 -2,1 13 7 24 13 NNE 1024,0 55 0,0
21.01.2017 10:00:00 5,0 -1,9 15 8 24 13 NNE 1023,9 56 0,0
21.01.2017 09:00:00 3,5 -1,9 13 7 18 10 NNE 1023,7 54 0,0
21.01.2017 08:00:00 2,0 -2,2 10 5 17 9 NNE 1023,6 47 0,0
21.01.2017 07:00:00 1,7 -2,6 12 7 17 9 NNE 1023,7 41 0,0
21.01.2017 06:00:00 0,8 -3,3 11 6 16 8 NE 1024,0 41 0,0
21.01.2017 05:00:00 2,5 -3,0 10 5 19 11 NNE 1024,2 42 0,0
21.01.2017 04:00:00 3,8 -2,6 14 7 24 13 NNE 1024,3 43 0,0
21.01.2017 03:00:00 4,7 -2,6 16 9 27 14 NNE 1024,4 39 0,0
21.01.2017 02:00:00 5,9 -2,0 17 9 24 13 NNE 1024,7 35 0,0
21.01.2017 01:00:00 5,5 -2,1 15 8 22 12 N 1025,3 20 0,0
21.01.2017 00:00:00 5,1 -2,3 13 7 21 11 NNE 1025,8 20 0,0
20.01.2017 23:00:00 5,7 -2,4 16 8 22 12 NE 1026,0 19 0,0
20.01.2017 22:00:00 3,9 -2,1 11 6 16 9 NE 1026,0 20 0,0
20.01.2017 21:00:00 3,0 -2,9 11 6 16 9 NE 1025,7 20 0,0
20.01.2017 20:00:00 4,3 -2,8 9 5 15 8 NNE 1025,4 45 0,0
20.01.2017 19:00:00 5,1 -3,0 9 5 19 11 NNE 1025,3 37 0,0
20.01.2017 18:00:00 7,6 -1,9 10 5 29 16 E 1025,3 46 0,0
20.01.2017 17:00:00 8,9 -1,5 20 11 32 18 E 1025,1 49 0,0
20.01.2017 16:00:00 9,2 -1,8 19 10 36 19 ENE 1025,4 48 0,0
20.01.2017 15:00:00 9,1 -1,9 26 14 43 23 E 1025,3 41 0,0
20.01.2017 14:00:00 9,4 -2,3 27 14 46 25 E 1025,6 48 0,0
20.01.2017 13:00:00 8,2 -2,8 23 13 38 21 ENE 1026,2 43 0,0
20.01.2017 12:00:00 7,5 -3,1 24 13 37 20 ENE 1026,7 46 0,0
20.01.2017 11:00:00 5,2 -2,9 15 8 22 12 NE 1027,3 35 0,0
20.01.2017 10:00:00 2,8 -3,8 13 7 23 13 NE 1026,9 32 0,0
20.01.2017 09:00:00 2,0 -4,3 17 9 25 14 NE 1026,6 33 0,0
20.01.2017 08:00:00 1,3 -5,0 18 10 30 16 NNE 1026,4 35 0,0
20.01.2017 07:00:00 0,9 -5,4 19 11 27 15 NNE 1026,2 30 0,0
20.01.2017 06:00:00 0,5 -5,1 15 8 22 12 NE 1026,4 19 0,0
20.01.2017 05:00:00 0,3 -4,9 16 9 23 12 NE 1026,7 17 0,0
20.01.2017 04:00:00 0,1 -4,9 13 7 18 10 NNE 1027,1 16 0,0
20.01.2017 03:00:00 -1,7 -4,7 9 5 11 6 N 1027,4 14 0,0
20.01.2017 02:00:00 -2,8 -5,1 4 2 11 6 NNW 1027,2 8 0,0
20.01.2017 01:00:00 -2,7 -5,3 8 5 12 7 WSW 1027,5 10 0,0
20.01.2017 00:00:00 -1,3 -4,8 2 1 11 6 SSW 1027,8 13 0,0
19.01.2017 23:00:00 -1,8 -5,1 8 5 14 7 NNW 1027,4 12 0,0
19.01.2017 22:00:00 -1,2 -4,9 5 3 9 5 WNW 1027,6 15 0,0
19.01.2017 21:00:00 -1,6 -6,2 4 2 8 5 W 1027,4 16 0,0
19.01.2017 20:00:00 0,6 -5,4 3 1 11 6 NNE 1026,8 18 0,0
19.01.2017 19:00:00 1,7 -5,2 8 4 12 6 W 1026,4 17 0,0
19.01.2017 18:00:00 3,0 -5,7 8 4 18 10 W 1025,9 29 0,0
19.01.2017 17:00:00 6,4 -5,0 12 6 18 10 W 1025,8 31 0,0
19.01.2017 16:00:00 7,9 -5,6 12 7 18 10 W 1025,8 20 0,0
19.01.2017 15:00:00 8,4 -5,8 3 2 15 8 W 1025,9 20 0,0
19.01.2017 14:00:00 6,2 -6,1 8 5 18 10 WNW 1026,1 29 0,0
19.01.2017 13:00:00 4,7 -6,0 10 6 20 11 W 1026,9 19 0,0
19.01.2017 12:00:00 3,0 -6,4 12 7 20 11 W 1027,3 19 0,0
19.01.2017 11:00:00 0,8 -6,3 13 7 19 11 W 1027,4 19 0,0
19.01.2017 10:00:00 -1,4 -6,5 15 8 19 11 WNW 1027,4 18 0,0
19.01.2017 09:00:00 -3,7 -6,8 14 7 19 11 WNW 1027,2 14 0,0
19.01.2017 08:00:00 -5,0 -7,6 12 7 18 10 W 1026,8 14 0,0
19.01.2017 07:00:00 -4,3 -7,4 13 7 23 12 W 1026,3 15 0,0
19.01.2017 06:00:00 -4,1 -7,2 16 8 21 11 W 1026,1 16 0,0
19.01.2017 05:00:00 -4,4 -7,5 12 6 21 12 W 1026,1 16 0,0
19.01.2017 04:00:00 -4,1 -7,2 13 7 23 12 WNW 1026,2 16 0,0
19.01.2017 03:00:00 -3,7 -6,8 13 7 18 10 W 1026,4 16 0,0
19.01.2017 02:00:00 -3,3 -6,9 11 6 19 10 W 1025,7 18 0,0
19.01.2017 01:00:00 -3,2 -6,8 11 6 17 9 W 1025,5 18 0,0
19.01.2017 00:00:00 -3,6 -7,0 13 7 18 10 W 1025,4 16 0,0
18.01.2017 23:00:00 -3,0 -7,2 7 4 14 8 W 1025,2 18 0,0
18.01.2017 22:00:00 -2,2 -6,9 10 6 23 12 W 1024,9 19 0,0
18.01.2017 21:00:00 -1,5 -6,6 16 9 23 13 W 1024,7 20 0,0
18.01.2017 20:00:00 -1,0 -6,8 13 7 27 15 W 1024,7 27 0,0
18.01.2017 19:00:00 -0,1 -6,7 19 11 36 19 W 1024,0 30 0,0
18.01.2017 18:00:00 0,9 -6,9 22 12 36 19 W 1023,4 35 0,0
18.01.2017 17:00:00 2,7 -6,7 22 12 42 23 W 1023,1 41 0,0
18.01.2017 16:00:00 3,9 -6,7 29 15 40 22 W 1022,8 42 0,0
18.01.2017 15:00:00 4,6 -7,2 24 13 36 20 W 1022,9 37 0,0
18.01.2017 14:00:00 4,8 -6,7 18 10 28 15 W 1023,1 20 0,0
18.01.2017 13:00:00 3,8 -8,0 13 7 29 16 NW 1023,7 49 0,0
18.01.2017 12:00:00 2,3 -7,1 15 8 23 13 W 1024,0 44 0,0
18.01.2017 11:00:00 1,1 -7,9 13 7 24 13 W 1024,3 40 0,0
18.01.2017 10:00:00 -0,4 -7,7 16 8 25 13 WNW 1023,7 19 0,0
18.01.2017 09:00:00 -3,5 -7,8 11 6 16 8 WNW 1023,6 38 0,0
18.01.2017 08:00:00 -4,3 -9,0 12 7 21 12 WNW 1023,1 41 0,0
18.01.2017 07:00:00 -3,4 -8,3 13 7 22 12 WNW 1022,8 46 0,0
18.01.2017 06:00:00 -4,0 -8,7 11 6 17 9 WNW 1022,8 45 0,0
18.01.2017 05:00:00 -4,3 -8,8 12 6 19 10 WNW 1022,7 44 0,0
18.01.2017 04:00:00 -3,8 -8,5 16 9 19 11 WNW 1022,8 44 0,0
18.01.2017 03:00:00 -4,9 -9,0 13 7 16 8 WNW 1023,0 50 0,0
18.01.2017 02:00:00 -3,9 -8,8 11 6 17 9 WNW 1022,7 48 0,0
18.01.2017 01:00:00 -4,4 -9,2 11 6 16 8 W 1022,9 38 0,0
18.01.2017 00:00:00 -3,6 -9,2 8 4 15 8 WNW 1022,9 40 0,0
17.01.2017 23:00:00 -1,1 -9,5 13 7 22 12 NW 1022,6 60 0,0
17.01.2017 22:00:00 -0,3 -9,7 17 9 27 14 NW 1022,3 60 0,0
17.01.2017 21:00:00 0,2 -9,8 16 9 30 16 NW 1022,0 60 0,0
17.01.2017 20:00:00 1,0 -9,6 19 11 34 18 NNW 1021,7 60 0,0
17.01.2017 19:00:00 1,6 -10,0 21 11 37 20 NW 1021,1 60 -
17.01.2017 18:00:00 2,5 -10,1 23 12 42 23 NNW 1020,3 60 0,0
17.01.2017 17:00:00 4,0 -10,5 23 13 49 27 NNW 1019,9 59 0,0
17.01.2017 16:00:00 5,1 -11,1 31 17 48 26 NNW 1019,5 55 0,0
17.01.2017 15:00:00 5,8 -11,3 28 15 49 26 NNW 1018,8 54 0,0
17.01.2017 14:00:00 5,3 -11,3 31 17 50 27 NW 1019,0 50 0,0
17.01.2017 13:00:00 5,0 -11,2 30 16 47 25 NW 1019,5 58 0,0
17.01.2017 12:00:00 3,9 -10,9 31 17 44 24 NNW 1020,0 60 0,0
17.01.2017 11:00:00 3,0 -11,0 24 13 43 23 NW 1020,2 60 0,0
17.01.2017 10:00:00 2,0 -10,5 23 12 37 20 NNW 1019,8 44 0,0
17.01.2017 09:00:00 0,3 -10,5 18 10 37 20 NW 1019,3 60 0,0
17.01.2017 08:00:00 0,2 -10,6 24 13 48 26 NNW 1018,7 60 0,0
17.01.2017 07:00:00 0,4 -10,7 29 15 56 30 NNW 1018,4 60 0,0
17.01.2017 06:00:00 0,5 -11,0 31 17 51 28 NNW 1018,1 10 0,0
17.01.2017 05:00:00 1,0 -11,1 33 18 56 31 NNW 1018,0 60 0,0

tt = Température de l'air
td = dewpoint
ff = Vitesse du vent
fx = gusts
dd = Direction du vent
ppp = reduced air pressure
vv = visibility
rr = Quantités de précipitations

stations d'obs. à proximité